Weather in Malinovka

Russia / Tomsk District     56°41′31″N   85°20′14″E
temp.,
°C
wind,
m/s
gust,
m/s
humid.,
%
clouds,
%
prec.,
mm/h
press.,
hPa
HPBL,
m
29 november, mon
mon2901:00−6sw41094100 0.8 1032543
04:00−6sw4995100 0.2 1033462
07:00−10ssw41096100 0.3 1033288
10:00−10ssw41196100 0.1 1033343
13:00−8ssw41195100 0.1 1032366
16:00−8ssw41294100 0.1 1030421
19:00−9ssw51393100 0.1 1030396
22:00−9ssw51391100 0.0 1029392
30 november, tue
tue3001:00−9sw51585100 0.0 1027415
04:00−9ssw5148471 0.0 1026399
07:00−10ssw5148493 0.0 1025377
10:00−10ssw4148798 0.0 1025375
13:00−7sw51483100 0.0 1024458
16:00−7sw51481100 0.0 1023437
19:00−9sw413875 0.0 1024344
22:00−10sw4129171 0.0 1025288
1 december, wed
wed101:00−9sw4108998 0.0 1025282
04:00−10ssw3890100 0.0 1026241
07:00−11ssw388895 0.0 1026196
10:00−15ssw3990100 0.0 1027164
13:00−11ssw41185100 0.0 1026253
16:00−10ssw41186100 0.0 1025320
19:00−9ssw51488100 0.0 1023403
22:00−8sw51687100 0.0 1022447
2 december, thu
thu201:00−7sw41488100 0.1 1022515
04:00−7ssw51487100 0.1 1021395
07:00−6sw51586100 0.1 1020430
10:00−6ssw51486100 0.0 1020395
13:00−5sw41485100 0.0 1019432
16:00−5ssw51585100 0.0 1018425
19:00−6ssw51585100 0.0 1017379
22:00−6ssw51583100 0.0 1016362
3 december, fri
fri301:00−5ssw51682100 0.0 1014391
04:00−4ssw51680100 0.0 1012415
07:00−3ssw51779100 0.0 1009483
10:000s51680100 0.1 1006465
13:00+1ssw71875100 0.2 1003799
16:000ssw71697100 0.7 10011027
19:000wsw81697100 3.4 10031272
22:00−1wsw81583100 0.2 10071195